Location: Newark
(44.2003°N, 3.2583°E)
Time: 23:21:31
(UTC+00:00)

Transit 2A - Visible Passes

Search period start: 15 October 2019 00:00
Search period end: 25 October 2019 00:00
Orbit: 600 x 959 km, 66.7° (Epoch: 15 October)

Date Brightness Start Highest point End Pass type
(mag) Time Alt. Az. Time Alt. Az. Time Alt. Az.
15 Oct 8.4 03:23:04 10° N 03:25:15 13° NE 03:27:24 10° ENE visible
15 Oct 5.6 05:04:45 10° NNW 05:09:10 82° ENE 05:13:30 10° SSE visible
16 Oct 6.2 04:30:42 10° NNW 04:35:02 54° NE 04:39:16 10° SE visible
16 Oct 8.2 19:11:33 10° S 19:12:05 12° S 19:12:05 12° S visible
17 Oct 7.0 03:56:59 11° NNW 04:00:50 36° NE 04:04:50 10° ESE visible
17 Oct 7.6 18:38:10 10° SSE 18:40:21 19° SE 18:40:21 19° SE visible
17 Oct 8.5 20:20:13 10° SW 20:20:57 14° SW 20:20:57 14° SW visible
18 Oct 7.5 03:24:44 20° N 03:26:33 26° NE 03:30:12 10° ESE visible
18 Oct 6.0 05:05:45 10° NW 05:09:47 37° WSW 05:13:47 10° S visible
18 Oct 7.5 18:05:12 10° SSE 18:08:30 17° ESE 18:08:30 17° ESE visible
18 Oct 7.2 19:45:53 10° SW 19:49:05 35° SW 19:49:05 35° SW visible
19 Oct 8.1 02:52:38 19° NE 02:52:38 19° NE 02:55:20 10° E visible
19 Oct 5.5 04:33:12 23° NW 04:35:45 59° WSW 04:40:01 10° SSE visible
19 Oct 7.8 17:33:16 10° ESE 17:34:43 11° ESE 17:36:09 10° E visible
19 Oct 5.8 19:11:44 10° SSW 19:17:03 78° SSE 19:17:03 78° SSE visible
19 Oct 8.9 20:57:13 10° W 20:57:38 11° W 20:57:38 11° W visible
20 Oct 5.4 04:01:15 73° NNW 04:01:40 89° NE 04:06:01 10° SSE visible
20 Oct 6.0 18:37:47 10° SSW 18:43:10 55° ESE 18:44:51 38° ENE visible
20 Oct 8.1 20:22:13 10° WSW 20:25:24 23° WNW 20:25:24 23° WNW visible
21 Oct 7.0 03:29:24 31° ESE 03:29:24 31° ESE 03:31:50 10° SE visible
21 Oct 7.2 05:09:59 14° WSW 05:10:08 14° WSW 05:12:31 10° SW visible
21 Oct 6.5 18:04:04 10° S 18:09:07 38° ESE 18:12:28 17° NE visible
21 Oct 7.3 19:47:29 10° WSW 19:52:18 34° NW 19:53:01 32° NNW visible
22 Oct 7.3 04:38:12 16° SW 04:38:12 16° SW 04:39:36 10° SSW visible
22 Oct 7.0 17:30:37 10° SSE 17:35:07 26° ESE 17:39:17 10° NE visible
22 Oct 6.8 19:12:54 10° SW 19:18:05 47° NW 19:20:27 27° N visible
23 Oct 6.2 18:38:32 10° SW 18:43:55 67° WNW 18:47:44 17° NNE visible
23 Oct 8.6 20:25:25 10° WNW 20:27:54 13° NW 20:28:15 13° NNW visible
24 Oct 5.9 18:04:21 10° SSW 18:09:47 86° ESE 18:14:43 10° NNE visible
24 Oct 8.3 19:50:03 10° W 19:53:30 18° NW 19:55:25 15° NNW visible
